Terminal Aerodrome Forecast
Issued by NWS

Home | Current Version | Previous Version | Graphics & Text | Print | Product List | Glossary On
Versions: 1 2 3 4 5 6 7 8 9 10 11 12 13 14 15 16 17 18 19 20 21 22 23 24 25 26 27 28 29 30 31 32 33 34 35 36 37 38 39 40 41 42 43 44 45 46 47 48 49 50
000
FTUS43 KLOT 251400 AAA
TAFGYY
TAF AMD
KGYY 251401Z 2514/2612 25010G15KT P6SM BKN018 OVC025
     FM251600 23012G19KT P6SM BKN020
     FM251900 20013G20KT P6SM FEW025 BKN200
     FM260000 18010KT P6SM BKN200=

USA.gov is the U.S. government's official web portal to all federal, state and local government web resources and services.